BAW1253 SBFN-GCXO

Flight info

Callsign BAW1253
Flight time 5h 6m
Altitude 27000
Route UTRAM UB623 CVS/N0458F370 UN873 IPERA N873 UDATI/N0456F380 DCT MERAN DCT COSSE
Aircraft A319/M-SDE3FGHIRWY/LB1

Departure

Time 2026-04-27 01:27
Airport Fernando de Noronha Airport (SBFN)

Arrival

Time 2026-04-27 06:33
Airport Tenerife Norte-Ciudad de La Laguna Airport (GCXO)
Time Latitude Longitude Altitude Speed Heading
2026-04-27 01:08 -3.85555 -32.42845 171 ft 0 kts 185°
2026-04-27 01:23 -3.85558 -32.42844 171 ft 1 kts 166°
2026-04-27 01:24 -3.85573 -32.42828 171 ft 5 kts 96°
2026-04-27 01:24 -3.85530 -32.42770 169 ft 15 kts 30°
2026-04-27 01:24 -3.85432 -32.42733 168 ft 16 kts 47°
2026-04-27 01:24 -3.85423 -32.42624 169 ft 16 kts 97°
2026-04-27 01:25 -3.85428 -32.42507 168 ft 18 kts 90°
2026-04-27 01:25 -3.85438 -32.42372 164 ft 22 kts 95°
2026-04-27 01:25 -3.85452 -32.42198 166 ft 27 kts 94°
2026-04-27 01:25 -3.85468 -32.41990 167 ft 33 kts 94°
2026-04-27 01:26 -3.85487 -32.41729 164 ft 42 kts 94°
2026-04-27 01:26 -3.85496 -32.41455 158 ft 13 kts 56°
2026-04-27 01:26 -3.85487 -32.41442 158 ft 2 kts 112°
2026-04-27 01:26 -3.85502 -32.41454 158 ft 6 kts 232°
2026-04-27 01:27 -3.85507 -32.41500 160 ft 11 kts 272°
2026-04-27 01:27 -3.85481 -32.41828 164 ft 86 kts 274°
2026-04-27 01:27 -3.85425 -32.42664 174 ft 152 kts 273°
2026-04-27 01:27 -3.85337 -32.43708 840 ft 144 kts 274°
2026-04-27 01:28 -3.85235 -32.44733 1148 ft 151 kts 275°
2026-04-27 01:28 -3.85123 -32.45798 1413 ft 162 kts 274°
2026-04-27 01:28 -3.85000 -32.46997 1540 ft 184 kts 275°
2026-04-27 01:28 -3.84865 -32.48334 1805 ft 200 kts 274°
2026-04-27 01:29 -3.84720 -32.49806 1912 ft 226 kts 275°
2026-04-27 01:29 -3.84570 -32.51457 2154 ft 248 kts 277°
2026-04-27 01:29 -3.84281 -32.53194 2618 ft 264 kts 282°
2026-04-27 01:29 -3.83749 -32.54990 3258 ft 274 kts 295°
2026-04-27 01:30 -3.82526 -32.56453 3967 ft 279 kts 324°
2026-04-27 01:30 -3.80743 -32.57210 4713 ft 282 kts 352°
2026-04-27 01:30 -3.78799 -32.57114 5440 ft 282 kts 18°
2026-04-27 01:30 -3.77087 -32.56184 6182 ft 282 kts 41°
2026-04-27 01:31 -3.75609 -32.54882 6900 ft 284 kts 43°
2026-04-27 01:31 -3.74129 -32.53563 7605 ft 286 kts 43°
2026-04-27 01:31 -3.72637 -32.52234 8285 ft 288 kts 43°
2026-04-27 01:31 -3.71133 -32.50900 8980 ft 290 kts 43°
2026-04-27 01:32 -3.69613 -32.49556 9660 ft 292 kts 42°
2026-04-27 01:32 -3.68076 -32.48199 10214 ft 299 kts 42°
2026-04-27 01:32 -3.66459 -32.46769 10332 ft 321 kts 42°
2026-04-27 01:32 -3.64737 -32.45245 10451 ft 340 kts 42°
2026-04-27 01:33 -3.62917 -32.43637 10569 ft 358 kts 42°
2026-04-27 01:33 -3.61018 -32.41963 10823 ft 369 kts 42°
2026-04-27 01:33 -3.59075 -32.40256 11267 ft 373 kts 42°
2026-04-27 01:33 -3.57117 -32.38535 11761 ft 376 kts 42°
2026-04-27 01:34 -3.55147 -32.36798 12242 ft 379 kts 42°
2026-04-27 01:34 -3.53162 -32.35049 12741 ft 381 kts 42°
2026-04-27 01:34 -3.51163 -32.33289 13229 ft 384 kts 42°
2026-04-27 01:34 -3.49152 -32.31516 13717 ft 387 kts 42°
2026-04-27 01:35 -3.47152 -32.29750 14148 ft 389 kts 43°
2026-04-27 01:35 -3.45118 -32.27951 14576 ft 391 kts 43°
2026-04-27 01:35 -3.43075 -32.26144 15006 ft 394 kts 43°
2026-04-27 01:35 -3.41015 -32.24325 15435 ft 396 kts 43°
2026-04-27 01:36 -3.38943 -32.22497 15859 ft 398 kts 43°
2026-04-27 01:36 -3.36859 -32.20657 16279 ft 401 kts 43°
2026-04-27 01:36 -3.34759 -32.18806 16710 ft 403 kts 43°
2026-04-27 01:36 -3.32649 -32.16948 17137 ft 406 kts 43°
2026-04-27 01:37 -3.30526 -32.15075 17557 ft 408 kts 43°
2026-04-27 01:37 -3.28368 -32.13213 17977 ft 411 kts 39°
2026-04-27 01:37 -3.25960 -32.11653 18355 ft 415 kts 29°
2026-04-27 01:37 -3.23311 -32.10467 18699 ft 418 kts 24°
2026-04-27 01:38 -3.20618 -32.09334 19025 ft 421 kts 24°
2026-04-27 01:38 -3.17918 -32.08190 19356 ft 423 kts 24°
2026-04-27 01:38 -3.15197 -32.07035 19684 ft 425 kts 25°
2026-04-27 01:38 -3.12464 -32.05873 19998 ft 428 kts 25°
2026-04-27 01:39 -3.09722 -32.04707 20313 ft 430 kts 25°
2026-04-27 01:39 -3.06962 -32.03533 20624 ft 431 kts 25°
2026-04-27 01:39 -3.04194 -32.02355 20926 ft 433 kts 25°
2026-04-27 01:39 -3.01411 -32.01172 21214 ft 435 kts 25°
2026-04-27 01:40 -2.98616 -31.99985 21502 ft 437 kts 25°
2026-04-27 01:40 -2.95810 -31.98795 21774 ft 439 kts 25°
2026-04-27 01:40 -2.92993 -31.97597 22045 ft 441 kts 25°
2026-04-27 01:40 -2.91120 -31.96800 22226 ft 442 kts 25°
2026-04-27 01:41 -2.88277 -31.95590 22476 ft 444 kts 25°
2026-04-27 01:41 -2.85426 -31.94380 22729 ft 446 kts 25°
2026-04-27 01:41 -2.81632 -31.92768 23065 ft 449 kts 25°
2026-04-27 01:41 -2.78750 -31.91544 23315 ft 450 kts 25°
2026-04-27 01:42 -2.75856 -31.90314 23556 ft 452 kts 25°
2026-04-27 01:42 -2.73897 -31.89483 23690 ft 453 kts 25°
2026-04-27 01:42 -2.70990 -31.88251 23895 ft 455 kts 25°
2026-04-27 01:42 -2.68109 -31.87030 24101 ft 456 kts 25°
2026-04-27 01:43 -2.65184 -31.85790 24298 ft 457 kts 25°
2026-04-27 01:43 -2.62252 -31.84546 24502 ft 458 kts 25°
2026-04-27 01:43 -2.59317 -31.83297 24703 ft 459 kts 25°
2026-04-27 01:43 -2.56371 -31.82042 24881 ft 461 kts 25°
2026-04-27 01:44 -2.53414 -31.80787 25068 ft 462 kts 25°
2026-04-27 01:44 -2.50447 -31.79529 25254 ft 463 kts 25°
2026-04-27 01:44 -2.47477 -31.78269 25433 ft 464 kts 25°
2026-04-27 01:44 -2.44497 -31.77005 25615 ft 466 kts 25°
2026-04-27 01:45 -2.41515 -31.75741 25801 ft 467 kts 25°
2026-04-27 01:45 -2.38518 -31.74470 25983 ft 468 kts 24°
2026-04-27 01:45 -2.35519 -31.73199 26158 ft 469 kts 24°
2026-04-27 01:45 -2.32513 -31.71925 26336 ft 470 kts 24°
2026-04-27 01:46 -2.29502 -31.70646 26507 ft 471 kts 25°
2026-04-27 01:46 -2.26485 -31.69363 26687 ft 472 kts 24°
2026-04-27 01:46 -2.23467 -31.68079 26888 ft 471 kts 24°
2026-04-27 01:46 -2.20446 -31.66793 26955 ft 472 kts 24°
2026-04-27 01:47 -2.17428 -31.65510 26962 ft 471 kts 24°
2026-04-27 01:47 -2.14409 -31.64229 26967 ft 471 kts 24°
2026-04-27 01:47 -2.11393 -31.62954 26959 ft 471 kts 24°
2026-04-27 01:47 -2.08415 -31.61695 26963 ft 471 kts 24°
2026-04-27 01:48 -2.05398 -31.60415 26960 ft 471 kts 24°
2026-04-27 01:48 -2.02383 -31.59137 26960 ft 471 kts 24°
2026-04-27 01:48 -1.99363 -31.57860 26967 ft 471 kts 24°
2026-04-27 01:48 -1.96345 -31.56581 26969 ft 471 kts 24°
2026-04-27 01:49 -1.93329 -31.55304 26965 ft 471 kts 24°
2026-04-27 01:49 -1.90313 -31.54030 26962 ft 470 kts 24°
2026-04-27 01:49 -1.87303 -31.52753 26968 ft 470 kts 24°
2026-04-27 01:49 -1.84299 -31.51475 26966 ft 469 kts 25°
2026-04-27 01:50 -1.81292 -31.50193 26967 ft 469 kts 25°
2026-04-27 01:50 -1.78292 -31.48918 26964 ft 469 kts 24°
2026-04-27 01:50 -1.75293 -31.47645 26957 ft 468 kts 24°
2026-04-27 01:50 -1.72294 -31.46375 26956 ft 468 kts 24°
2026-04-27 01:51 -1.69296 -31.45106 26961 ft 468 kts 24°
2026-04-27 01:51 -1.66337 -31.43852 26961 ft 468 kts 24°
2026-04-27 01:51 -1.63343 -31.42582 26959 ft 468 kts 24°
2026-04-27 01:51 -1.60347 -31.41312 26954 ft 468 kts 24°
2026-04-27 01:52 -1.57350 -31.40042 26945 ft 468 kts 24°
2026-04-27 01:52 -1.54349 -31.38769 26944 ft 468 kts 24°
2026-04-27 01:52 -1.51348 -31.37496 26943 ft 469 kts 24°
2026-04-27 01:52 -1.48347 -31.36225 26943 ft 469 kts 24°
2026-04-27 01:53 -1.45343 -31.34954 26948 ft 469 kts 24°
2026-04-27 01:53 -1.42343 -31.33680 26950 ft 469 kts 24°
2026-04-27 01:53 -1.39334 -31.32401 26951 ft 469 kts 24°
2026-04-27 01:53 -1.36331 -31.31127 26950 ft 469 kts 24°
2026-04-27 01:54 -1.33321 -31.29854 26950 ft 470 kts 24°
2026-04-27 01:54 -1.30315 -31.28580 26951 ft 470 kts 25°
2026-04-27 01:54 -1.27301 -31.27304 26945 ft 470 kts 24°
2026-04-27 01:54 -1.24284 -31.26028 26942 ft 471 kts 25°
2026-04-27 01:55 -1.21264 -31.24752 26940 ft 472 kts 24°
2026-04-27 01:55 -1.18243 -31.23474 26940 ft 472 kts 24°
2026-04-27 01:55 -1.15217 -31.22191 26942 ft 472 kts 25°
2026-04-27 01:55 -1.12191 -31.20908 26942 ft 473 kts 24°
2026-04-27 01:56 -1.06174 -31.18352 26945 ft 473 kts 24°
2026-04-27 01:56 -1.03150 -31.17066 26946 ft 473 kts 25°
2026-04-27 01:56 -1.00114 -31.15780 26946 ft 473 kts 24°
2026-04-27 01:57 -0.97083 -31.14497 26951 ft 473 kts 25°
2026-04-27 01:57 -0.94049 -31.13212 26953 ft 473 kts 25°
2026-04-27 01:57 -0.91014 -31.11926 26956 ft 473 kts 25°
2026-04-27 01:57 -0.87984 -31.10640 26958 ft 473 kts 25°
2026-04-27 01:58 -0.84951 -31.09357 26959 ft 473 kts 24°
2026-04-27 01:58 -0.81919 -31.08072 26959 ft 473 kts 25°
2026-04-27 01:58 -0.78910 -31.06755 26958 ft 472 kts 26°
2026-04-27 01:58 -0.75914 -31.05405 26958 ft 472 kts 26°
2026-04-27 01:59 -0.72931 -31.04043 26958 ft 472 kts 26°
2026-04-27 01:59 -0.69976 -31.02696 26956 ft 472 kts 26°
2026-04-27 01:59 -0.66987 -31.01340 26955 ft 472 kts 26°
2026-04-27 01:59 -0.63998 -30.99990 26957 ft 472 kts 26°
2026-04-27 02:00 -0.61006 -30.98648 26957 ft 471 kts 26°
2026-04-27 02:00 -0.58011 -30.97314 26960 ft 471 kts 26°
2026-04-27 02:00 -0.55016 -30.95979 26958 ft 471 kts 26°
2026-04-27 02:00 -0.52023 -30.94644 26959 ft 471 kts 26°
2026-04-27 02:01 -0.49030 -30.93303 26961 ft 471 kts 26°
2026-04-27 02:01 -0.46043 -30.91959 26961 ft 471 kts 26°
2026-04-27 02:01 -0.43057 -30.90616 26960 ft 471 kts 26°
2026-04-27 02:01 -0.40069 -30.89273 26959 ft 471 kts 26°
2026-04-27 02:02 -0.37086 -30.87935 26960 ft 471 kts 26°
2026-04-27 02:02 -0.34097 -30.86598 26959 ft 471 kts 26°
2026-04-27 02:02 -0.31103 -30.85261 26959 ft 471 kts 26°
2026-04-27 02:02 -0.28116 -30.83924 26956 ft 471 kts 26°
2026-04-27 02:03 -0.25126 -30.82585 26958 ft 471 kts 26°
2026-04-27 02:03 -0.22140 -30.81244 26958 ft 471 kts 26°
2026-04-27 02:03 -0.19153 -30.79906 26957 ft 471 kts 26°
2026-04-27 02:03 -0.16167 -30.78568 26959 ft 471 kts 26°
2026-04-27 02:04 -0.13179 -30.77225 26958 ft 471 kts 26°
2026-04-27 02:04 -0.10190 -30.75884 26959 ft 471 kts 26°
2026-04-27 02:04 -0.07241 -30.74563 26960 ft 471 kts 26°
2026-04-27 02:04 -0.04255 -30.73228 26959 ft 471 kts 26°
2026-04-27 02:05 -0.01264 -30.71890 26957 ft 471 kts 26°
2026-04-27 02:05 0.01721 -30.70551 26953 ft 471 kts 26°
2026-04-27 02:05 0.04711 -30.69207 26950 ft 471 kts 26°
2026-04-27 02:05 0.07706 -30.67863 26945 ft 472 kts 26°
2026-04-27 02:06 0.10699 -30.66523 26949 ft 472 kts 26°
2026-04-27 02:06 0.13697 -30.65182 26947 ft 472 kts 26°
2026-04-27 02:06 0.16697 -30.63838 26947 ft 472 kts 26°
2026-04-27 02:06 0.19692 -30.62497 26944 ft 472 kts 26°
2026-04-27 02:07 0.22692 -30.61155 26944 ft 472 kts 26°
2026-04-27 02:07 0.25695 -30.59808 26944 ft 473 kts 26°
2026-04-27 02:07 0.28690 -30.58462 26946 ft 473 kts 26°
2026-04-27 02:07 0.31692 -30.57113 26947 ft 473 kts 26°
2026-04-27 02:08 0.34692 -30.55766 26948 ft 473 kts 26°
2026-04-27 02:08 0.37696 -30.54422 26948 ft 473 kts 26°
2026-04-27 02:08 0.40701 -30.53075 26948 ft 473 kts 26°
2026-04-27 02:08 0.43706 -30.51727 26949 ft 473 kts 26°
2026-04-27 02:09 0.46712 -30.50380 26943 ft 473 kts 26°
2026-04-27 02:09 0.49718 -30.49034 26944 ft 473 kts 26°
2026-04-27 02:09 0.52724 -30.47690 26943 ft 473 kts 26°
2026-04-27 02:09 0.55725 -30.46344 26944 ft 473 kts 26°
2026-04-27 02:10 0.58729 -30.44995 26946 ft 473 kts 26°
2026-04-27 02:10 0.61729 -30.43648 26944 ft 473 kts 26°
2026-04-27 02:10 0.64731 -30.42301 26946 ft 473 kts 26°
2026-04-27 02:10 0.67733 -30.40955 26948 ft 473 kts 26°
2026-04-27 02:11 0.70738 -30.39608 26949 ft 473 kts 25°
2026-04-27 02:11 0.73744 -30.38263 26944 ft 474 kts 25°
2026-04-27 02:11 0.76750 -30.36915 26941 ft 474 kts 25°
2026-04-27 02:11 0.79757 -30.35563 26943 ft 474 kts 25°
2026-04-27 02:12 0.82765 -30.34213 26940 ft 474 kts 26°
2026-04-27 02:12 0.85740 -30.32879 26940 ft 475 kts 25°
2026-04-27 02:12 0.88752 -30.31532 26941 ft 475 kts 25°
2026-04-27 02:12 0.91767 -30.30186 26942 ft 475 kts 25°
2026-04-27 02:13 0.94782 -30.28838 26945 ft 475 kts 25°
2026-04-27 02:13 0.97798 -30.27488 26943 ft 475 kts 25°
2026-04-27 02:13 1.00811 -30.26136 26946 ft 474 kts 26°
2026-04-27 02:13 1.03821 -30.24785 26946 ft 474 kts 25°
2026-04-27 02:14 1.06835 -30.23430 26949 ft 475 kts 26°
2026-04-27 02:14 1.09846 -30.22080 26950 ft 475 kts 25°
2026-04-27 02:14 1.12857 -30.20727 26949 ft 475 kts 26°
2026-04-27 02:14 1.15870 -30.19374 26950 ft 474 kts 25°
2026-04-27 02:15 1.18880 -30.18023 26950 ft 474 kts 26°
2026-04-27 02:15 1.21890 -30.16673 26950 ft 474 kts 26°
2026-04-27 02:15 1.24899 -30.15321 26949 ft 474 kts 26°
2026-04-27 02:15 1.27913 -30.13971 26949 ft 474 kts 26°
2026-04-27 02:16 1.30924 -30.12622 26947 ft 474 kts 25°
2026-04-27 02:16 1.33931 -30.11274 26949 ft 474 kts 26°
2026-04-27 02:16 1.36940 -30.09922 26950 ft 474 kts 26°
2026-04-27 02:16 1.39945 -30.08571 26949 ft 474 kts 26°
2026-04-27 02:17 1.42953 -30.07224 26951 ft 473 kts 26°
2026-04-27 02:17 1.45916 -30.05894 26949 ft 473 kts 26°
2026-04-27 02:17 1.48959 -30.04524 26949 ft 473 kts 26°
2026-04-27 02:17 1.51958 -30.03177 26949 ft 473 kts 26°
2026-04-27 02:18 1.54961 -30.01830 26943 ft 473 kts 26°
2026-04-27 02:18 1.57923 -30.00502 26942 ft 473 kts 26°
2026-04-27 02:18 1.60926 -29.99156 26942 ft 473 kts 26°
2026-04-27 02:18 1.63929 -29.97813 26941 ft 473 kts 26°
2026-04-27 02:19 1.66930 -29.96473 26943 ft 473 kts 26°
2026-04-27 02:19 1.69936 -29.95130 26942 ft 473 kts 27°
2026-04-27 02:19 1.72936 -29.93786 26941 ft 473 kts 27°
2026-04-27 02:19 1.75938 -29.92436 26941 ft 473 kts 27°
2026-04-27 02:20 1.78933 -29.91085 26944 ft 473 kts 27°
2026-04-27 02:20 1.81933 -29.89733 26944 ft 473 kts 27°
2026-04-27 02:20 1.84932 -29.88383 26943 ft 473 kts 27°
2026-04-27 02:20 1.87934 -29.87038 26944 ft 473 kts 27°
2026-04-27 02:21 1.90939 -29.85692 26941 ft 473 kts 27°
2026-04-27 02:21 1.93948 -29.84344 26941 ft 473 kts 27°
2026-04-27 02:21 1.96951 -29.83000 26941 ft 473 kts 27°
2026-04-27 02:21 1.99963 -29.81653 26944 ft 473 kts 26°
2026-04-27 02:22 2.02967 -29.80309 26956 ft 473 kts 26°
2026-04-27 02:22 2.05967 -29.78961 26959 ft 472 kts 27°
2026-04-27 02:22 2.08960 -29.77610 26960 ft 472 kts 27°
2026-04-27 02:22 2.11952 -29.76260 26961 ft 472 kts 27°
2026-04-27 02:23 2.14943 -29.74913 26960 ft 471 kts 27°
2026-04-27 02:23 2.17931 -29.73572 26959 ft 471 kts 26°
2026-04-27 02:23 2.20924 -29.72230 26957 ft 471 kts 26°
2026-04-27 02:23 2.23916 -29.70888 26957 ft 471 kts 26°
2026-04-27 02:24 2.26907 -29.69549 26955 ft 471 kts 26°
2026-04-27 02:24 2.29863 -29.68226 26954 ft 471 kts 26°
2026-04-27 02:24 2.32852 -29.66884 26955 ft 471 kts 26°
2026-04-27 02:24 2.35834 -29.65543 26965 ft 470 kts 26°
2026-04-27 02:25 2.38814 -29.64203 26970 ft 469 kts 26°
2026-04-27 02:25 2.41791 -29.62867 26970 ft 468 kts 26°
2026-04-27 02:25 2.44765 -29.61531 26969 ft 468 kts 26°
2026-04-27 02:25 2.47729 -29.60197 26969 ft 467 kts 26°
2026-04-27 02:26 2.50697 -29.58860 26968 ft 467 kts 26°
2026-04-27 02:26 2.53662 -29.57526 26965 ft 467 kts 26°
2026-04-27 02:26 2.56624 -29.56192 26964 ft 467 kts 26°
2026-04-27 02:26 2.59585 -29.54862 26961 ft 467 kts 26°
2026-04-27 02:27 2.62551 -29.53531 26956 ft 466 kts 26°
2026-04-27 02:27 2.65509 -29.52200 26954 ft 466 kts 26°
2026-04-27 02:27 2.68470 -29.50866 26958 ft 466 kts 26°
2026-04-27 02:27 2.71428 -29.49534 26957 ft 466 kts 26°
2026-04-27 02:28 2.74391 -29.48205 26955 ft 466 kts 26°
2026-04-27 02:28 2.77351 -29.46881 26953 ft 466 kts 26°
2026-04-27 02:28 2.80269 -29.45571 26952 ft 466 kts 26°
2026-04-27 02:28 2.83225 -29.44242 26950 ft 466 kts 26°
2026-04-27 02:29 2.86188 -29.42911 26953 ft 466 kts 26°
2026-04-27 02:29 2.89147 -29.41585 26952 ft 466 kts 26°
2026-04-27 02:29 2.92107 -29.40256 26952 ft 466 kts 26°
2026-04-27 02:29 2.95060 -29.38928 26952 ft 466 kts 26°
2026-04-27 02:30 2.98018 -29.37596 26950 ft 466 kts 26°
2026-04-27 02:30 3.00976 -29.36266 26952 ft 466 kts 26°
2026-04-27 02:30 3.03934 -29.34939 26954 ft 466 kts 26°
2026-04-27 02:30 3.06893 -29.33608 26956 ft 466 kts 26°
2026-04-27 02:31 3.09855 -29.32274 26958 ft 466 kts 26°
2026-04-27 02:31 3.12811 -29.30942 26959 ft 466 kts 26°
2026-04-27 02:31 3.15769 -29.29610 26959 ft 466 kts 26°
2026-04-27 02:31 3.18727 -29.28276 26960 ft 466 kts 27°
2026-04-27 02:32 3.21685 -29.26945 26960 ft 466 kts 26°
2026-04-27 02:32 3.24649 -29.25614 26960 ft 466 kts 26°
2026-04-27 02:32 3.27609 -29.24285 26960 ft 467 kts 26°
2026-04-27 02:32 3.30585 -29.22949 26969 ft 471 kts 26°
2026-04-27 02:33 3.33542 -29.21621 26967 ft 473 kts 26°
2026-04-27 02:33 3.36546 -29.20269 26982 ft 474 kts 26°
2026-04-27 02:33 3.39553 -29.18913 27169 ft 474 kts 26°
2026-04-27 02:33 3.42558 -29.17558 27398 ft 473 kts 26°
2026-04-27 02:34 3.45557 -29.16205 27638 ft 473 kts 26°
2026-04-27 02:34 3.48555 -29.14853 27890 ft 472 kts 26°
2026-04-27 02:34 3.50535 -29.13962 28063 ft 471 kts 26°
2026-04-27 02:34 3.53524 -29.12616 28327 ft 471 kts 26°
2026-04-27 02:35 3.56508 -29.11273 28595 ft 470 kts 26°
2026-04-27 02:35 3.59487 -29.09932 28864 ft 469 kts 26°
2026-04-27 02:35 3.62465 -29.08594 29140 ft 468 kts 26°
2026-04-27 02:35 3.65443 -29.07259 29422 ft 468 kts 26°
2026-04-27 02:36 3.68408 -29.05928 29725 ft 466 kts 26°
2026-04-27 02:36 3.71361 -29.04599 30035 ft 465 kts 26°
2026-04-27 02:36 3.74309 -29.03271 30294 ft 464 kts 26°
2026-04-27 02:36 3.77253 -29.01942 30515 ft 464 kts 26°
2026-04-27 02:37 3.80196 -29.00611 30727 ft 465 kts 26°
2026-04-27 02:37 3.83143 -28.99278 30933 ft 465 kts 26°
2026-04-27 02:37 3.86099 -28.97946 31152 ft 465 kts 26°
2026-04-27 02:37 3.89056 -28.96617 31352 ft 466 kts 26°
2026-04-27 02:38 3.92013 -28.95284 31576 ft 466 kts 26°
2026-04-27 02:38 3.94974 -28.93949 31818 ft 466 kts 26°
2026-04-27 02:38 3.97930 -28.92620 32040 ft 467 kts 26°
2026-04-27 02:38 4.00899 -28.91286 32264 ft 467 kts 26°
2026-04-27 02:39 4.03867 -28.89949 32490 ft 468 kts 26°
2026-04-27 02:39 4.06838 -28.88613 32714 ft 469 kts 26°
2026-04-27 02:39 4.09814 -28.87272 32948 ft 469 kts 26°
2026-04-27 02:39 4.12789 -28.85929 33191 ft 469 kts 27°
2026-04-27 02:40 4.15770 -28.84585 33419 ft 470 kts 27°
2026-04-27 02:40 4.18708 -28.83255 33670 ft 470 kts 27°
2026-04-27 02:40 4.21692 -28.81904 33902 ft 471 kts 27°
2026-04-27 02:40 4.24682 -28.80558 33969 ft 471 kts 27°
2026-04-27 02:41 4.30668 -28.77869 33970 ft 471 kts 27°
2026-04-27 02:41 4.36642 -28.75173 33970 ft 470 kts 27°
2026-04-27 02:42 4.42594 -28.72485 33972 ft 468 kts 27°
2026-04-27 02:42 4.48532 -28.69798 33974 ft 468 kts 27°
2026-04-27 02:43 4.54472 -28.67114 33976 ft 468 kts 27°
2026-04-27 02:43 4.60416 -28.64434 33988 ft 468 kts 27°
2026-04-27 02:44 4.66343 -28.61761 33983 ft 467 kts 27°
2026-04-27 02:44 4.72259 -28.59097 33987 ft 466 kts 27°
2026-04-27 02:45 4.78163 -28.56429 33980 ft 465 kts 27°
2026-04-27 02:45 4.84023 -28.53777 33987 ft 465 kts 27°
2026-04-27 02:46 4.89916 -28.51107 33978 ft 465 kts 27°
2026-04-27 02:46 4.95814 -28.48440 33981 ft 465 kts 27°
2026-04-27 02:47 5.01713 -28.45772 33985 ft 465 kts 27°
2026-04-27 02:47 5.07609 -28.43114 33976 ft 465 kts 27°
2026-04-27 02:48 5.13506 -28.40441 33969 ft 465 kts 27°
2026-04-27 02:48 5.19407 -28.37768 33970 ft 465 kts 27°
2026-04-27 02:49 5.25312 -28.35098 33979 ft 465 kts 27°
2026-04-27 02:49 5.31213 -28.32426 33980 ft 465 kts 27°
2026-04-27 02:50 5.37074 -28.29773 33974 ft 465 kts 27°
2026-04-27 02:50 5.42977 -28.27106 33970 ft 466 kts 27°
2026-04-27 02:51 5.48893 -28.24432 33972 ft 466 kts 27°
2026-04-27 02:51 5.54796 -28.21752 33975 ft 466 kts 27°
2026-04-27 02:52 5.60707 -28.19071 33978 ft 466 kts 27°
2026-04-27 02:52 5.66623 -28.16400 33983 ft 466 kts 27°
2026-04-27 02:53 5.72536 -28.13718 33982 ft 466 kts 27°
2026-04-27 02:53 5.78451 -28.11038 33983 ft 466 kts 26°
2026-04-27 02:54 5.84367 -28.08366 33981 ft 466 kts 26°
2026-04-27 02:54 5.90276 -28.05684 33978 ft 466 kts 26°
2026-04-27 02:55 5.96146 -28.03013 33978 ft 466 kts 26°
2026-04-27 02:55 6.02058 -28.00325 33978 ft 466 kts 26°
2026-04-27 02:56 6.07971 -27.97636 33979 ft 467 kts 26°
2026-04-27 02:56 6.13889 -27.94960 33983 ft 466 kts 26°
2026-04-27 02:57 6.19803 -27.92277 33992 ft 466 kts 26°
2026-04-27 02:57 6.25716 -27.89590 33993 ft 466 kts 26°
2026-04-27 02:58 6.31628 -27.86903 33990 ft 466 kts 26°
2026-04-27 02:58 6.37540 -27.84211 33990 ft 466 kts 26°
2026-04-27 02:59 6.43455 -27.81531 33990 ft 466 kts 26°
2026-04-27 02:59 6.49363 -27.78846 33989 ft 466 kts 26°
2026-04-27 03:00 6.55229 -27.76173 33986 ft 466 kts 26°
2026-04-27 03:00 6.61132 -27.73482 33982 ft 466 kts 26°
2026-04-27 03:01 6.67042 -27.70795 33982 ft 466 kts 26°
2026-04-27 03:01 6.72950 -27.68112 33985 ft 466 kts 26°
2026-04-27 03:02 6.78851 -27.65428 33982 ft 465 kts 26°
2026-04-27 03:02 6.84755 -27.62737 33981 ft 466 kts 26°
2026-04-27 03:03 6.93614 -27.58699 33985 ft 466 kts 26°
2026-04-27 03:04 6.99533 -27.56000 33986 ft 466 kts 26°
2026-04-27 03:04 7.05413 -27.53330 33985 ft 466 kts 26°
2026-04-27 03:05 7.11324 -27.50644 33987 ft 466 kts 26°
2026-04-27 03:05 7.17231 -27.47941 33991 ft 466 kts 26°
2026-04-27 03:06 7.23129 -27.45239 33996 ft 466 kts 26°
2026-04-27 03:06 7.29035 -27.42549 33994 ft 465 kts 26°
2026-04-27 03:07 7.34932 -27.39862 33995 ft 465 kts 26°
2026-04-27 03:07 7.40828 -27.37168 33995 ft 465 kts 26°
2026-04-27 03:08 7.46730 -27.34475 33988 ft 465 kts 26°
2026-04-27 03:08 7.52592 -27.31798 33989 ft 466 kts 26°
2026-04-27 03:09 7.58493 -27.29105 33991 ft 466 kts 26°
2026-04-27 03:09 7.64391 -27.26404 33988 ft 466 kts 26°
2026-04-27 03:10 7.70292 -27.23703 33994 ft 466 kts 26°
2026-04-27 03:10 7.76200 -27.21007 33992 ft 466 kts 26°
2026-04-27 03:11 7.82101 -27.18310 33986 ft 466 kts 25°
2026-04-27 03:11 7.88006 -27.15604 33984 ft 466 kts 26°
2026-04-27 03:12 7.93915 -27.12899 33981 ft 467 kts 26°
2026-04-27 03:12 7.99794 -27.10201 33984 ft 467 kts 26°
2026-04-27 03:13 8.05716 -27.07493 33986 ft 467 kts 26°
2026-04-27 03:13 8.11636 -27.04785 33994 ft 468 kts 26°
2026-04-27 03:14 8.17563 -27.02062 33985 ft 468 kts 26°
2026-04-27 03:14 8.23488 -26.99339 33983 ft 469 kts 26°
2026-04-27 03:15 8.29431 -26.96624 33983 ft 469 kts 25°
2026-04-27 03:15 8.35371 -26.93898 33983 ft 469 kts 25°
2026-04-27 03:16 8.41312 -26.91173 33984 ft 469 kts 25°
2026-04-27 03:16 8.47250 -26.88449 33976 ft 469 kts 26°
2026-04-27 03:17 8.53192 -26.85717 33984 ft 469 kts 25°
2026-04-27 03:17 8.59097 -26.82998 33983 ft 470 kts 25°
2026-04-27 03:18 8.65050 -26.80262 33982 ft 470 kts 25°
2026-04-27 03:18 8.71005 -26.77525 33983 ft 470 kts 25°
2026-04-27 03:19 8.76954 -26.74784 33983 ft 470 kts 25°
2026-04-27 03:19 8.82908 -26.72040 33980 ft 471 kts 25°
2026-04-27 03:20 8.88873 -26.69289 33978 ft 471 kts 25°
2026-04-27 03:20 8.94835 -26.66544 33977 ft 471 kts 25°
2026-04-27 03:21 9.00804 -26.63800 33981 ft 471 kts 25°
2026-04-27 03:21 9.06780 -26.61052 33985 ft 472 kts 25°
2026-04-27 03:22 9.12758 -26.58297 33987 ft 472 kts 25°
2026-04-27 03:22 9.18742 -26.55535 33983 ft 473 kts 25°
2026-04-27 03:23 9.24726 -26.52762 33985 ft 473 kts 25°
2026-04-27 03:23 9.30722 -26.49997 33984 ft 474 kts 25°
2026-04-27 03:24 9.36720 -26.47233 33984 ft 474 kts 25°
2026-04-27 03:24 9.42679 -26.44481 33986 ft 474 kts 25°
2026-04-27 03:25 9.48683 -26.41713 33988 ft 474 kts 25°
2026-04-27 03:25 9.54692 -26.38930 33982 ft 475 kts 24°
2026-04-27 03:26 9.60695 -26.36142 33979 ft 475 kts 24°
2026-04-27 03:26 9.66711 -26.33361 33983 ft 475 kts 24°
2026-04-27 03:27 9.71757 -26.31030 33987 ft 476 kts 24°
2026-04-27 03:27 9.77739 -26.28258 33991 ft 476 kts 24°
2026-04-27 03:28 9.83755 -26.25460 33985 ft 476 kts 24°
2026-04-27 03:28 9.89778 -26.22666 33988 ft 476 kts 24°
2026-04-27 03:29 9.95805 -26.19878 33995 ft 476 kts 24°
2026-04-27 03:29 10.01837 -26.17086 33993 ft 476 kts 24°
2026-04-27 03:30 10.07863 -26.14292 33992 ft 476 kts 24°
2026-04-27 03:30 10.13889 -26.11491 34003 ft 477 kts 24°
2026-04-27 03:31 10.19926 -26.08693 34053 ft 478 kts 24°
2026-04-27 03:31 10.22952 -26.07292 34257 ft 478 kts 24°
2026-04-27 03:31 10.25980 -26.05884 34485 ft 478 kts 24°
2026-04-27 03:31 10.28996 -26.04479 34763 ft 476 kts 24°
2026-04-27 03:32 10.32006 -26.03078 35014 ft 476 kts 24°
2026-04-27 03:32 10.35010 -26.01680 35302 ft 474 kts 24°
2026-04-27 03:32 10.38006 -26.00286 35571 ft 473 kts 24°
2026-04-27 03:32 10.40994 -25.98894 35843 ft 472 kts 24°
2026-04-27 03:33 10.43931 -25.97524 36119 ft 470 kts 24°
2026-04-27 03:33 10.46940 -25.96122 36379 ft 469 kts 24°
2026-04-27 03:33 10.49871 -25.94759 36651 ft 468 kts 24°
2026-04-27 03:33 10.52829 -25.93386 36903 ft 467 kts 23°
2026-04-27 03:34 10.55782 -25.92015 36997 ft 466 kts 23°
2026-04-27 03:34 10.61676 -25.89280 37005 ft 465 kts 23°
2026-04-27 03:35 10.67555 -25.86542 37010 ft 465 kts 23°
2026-04-27 03:35 10.73435 -25.83797 37008 ft 465 kts 23°
2026-04-27 03:36 10.79314 -25.81050 37008 ft 465 kts 23°
2026-04-27 03:36 10.85192 -25.78303 37006 ft 465 kts 23°
2026-04-27 03:37 10.91065 -25.75558 37018 ft 464 kts 22°
2026-04-27 03:37 10.96898 -25.72834 37017 ft 464 kts 23°
2026-04-27 03:38 11.02768 -25.70092 37024 ft 464 kts 23°
2026-04-27 03:38 11.08633 -25.67354 37018 ft 464 kts 23°
2026-04-27 03:39 11.14496 -25.64611 37023 ft 464 kts 23°
2026-04-27 03:39 11.20360 -25.61872 37019 ft 464 kts 22°
2026-04-27 03:40 11.26228 -25.59125 37013 ft 464 kts 22°
2026-04-27 03:40 11.32096 -25.56378 37013 ft 464 kts 22°
2026-04-27 03:41 11.37969 -25.53619 37011 ft 464 kts 22°
2026-04-27 03:41 11.43838 -25.50864 37013 ft 465 kts 22°
2026-04-27 03:42 11.49714 -25.48112 37011 ft 465 kts 22°
2026-04-27 03:42 11.55588 -25.45359 37012 ft 465 kts 22°
2026-04-27 03:43 11.61461 -25.42609 37023 ft 464 kts 22°
2026-04-27 03:43 11.67336 -25.39853 37022 ft 464 kts 22°
2026-04-27 03:44 11.73202 -25.37096 37026 ft 464 kts 22°
2026-04-27 03:44 11.79024 -25.34358 37016 ft 464 kts 22°
2026-04-27 03:45 11.84887 -25.31603 37021 ft 464 kts 22°
2026-04-27 03:45 11.90751 -25.28842 37021 ft 464 kts 22°
2026-04-27 03:46 11.96607 -25.26083 37030 ft 463 kts 22°
2026-04-27 03:46 12.02459 -25.23335 37034 ft 462 kts 22°
2026-04-27 03:47 12.08297 -25.20585 37028 ft 462 kts 22°
2026-04-27 03:47 12.14130 -25.17834 37024 ft 462 kts 22°
2026-04-27 03:48 12.19956 -25.15079 37021 ft 461 kts 22°
2026-04-27 03:48 12.25783 -25.12332 37024 ft 461 kts 22°
2026-04-27 03:49 12.31615 -25.09588 37032 ft 461 kts 22°
2026-04-27 03:49 12.37432 -25.06840 37027 ft 460 kts 22°
2026-04-27 03:50 12.43245 -25.04095 37021 ft 460 kts 22°
2026-04-27 03:50 12.49058 -25.01350 37024 ft 460 kts 22°
2026-04-27 03:51 12.54827 -24.98617 37022 ft 460 kts 22°
2026-04-27 03:51 12.60633 -24.95865 37029 ft 460 kts 22°
2026-04-27 03:52 12.66438 -24.93111 37028 ft 459 kts 22°
2026-04-27 03:52 12.72238 -24.90372 37032 ft 459 kts 22°
2026-04-27 03:53 12.78036 -24.87626 37030 ft 459 kts 22°
2026-04-27 03:53 12.83823 -24.84871 37027 ft 459 kts 22°
2026-04-27 03:54 12.89620 -24.82131 37022 ft 459 kts 22°
2026-04-27 03:54 12.95411 -24.79380 37031 ft 459 kts 22°
2026-04-27 03:55 13.01202 -24.76626 37032 ft 459 kts 22°
2026-04-27 03:55 13.06989 -24.73874 37030 ft 459 kts 22°
2026-04-27 03:56 13.12783 -24.71123 37028 ft 459 kts 21°
2026-04-27 03:56 13.18577 -24.68376 37029 ft 459 kts 21°
2026-04-27 03:57 13.24334 -24.65633 37030 ft 459 kts 22°
2026-04-27 03:57 13.30122 -24.62876 37027 ft 459 kts 21°
2026-04-27 03:58 13.35916 -24.60121 37026 ft 459 kts 21°
2026-04-27 03:58 13.41713 -24.57356 37026 ft 459 kts 22°
2026-04-27 03:59 13.47509 -24.54580 37029 ft 459 kts 22°
2026-04-27 03:59 13.53302 -24.51819 37028 ft 459 kts 21°
2026-04-27 04:00 13.59096 -24.49060 37027 ft 459 kts 21°
2026-04-27 04:00 13.64856 -24.46308 37030 ft 459 kts 21°
2026-04-27 04:01 13.70648 -24.43540 37029 ft 459 kts 21°
2026-04-27 04:01 13.76432 -24.40755 37029 ft 459 kts 22°
2026-04-27 04:02 13.82217 -24.37954 37034 ft 459 kts 21°
2026-04-27 04:02 13.88001 -24.35155 37032 ft 459 kts 21°
2026-04-27 04:03 13.93788 -24.32363 37033 ft 459 kts 21°
2026-04-27 04:03 13.99577 -24.29577 37045 ft 459 kts 21°
2026-04-27 04:04 14.05361 -24.26776 37038 ft 460 kts 21°
2026-04-27 04:04 14.11146 -24.23968 37036 ft 460 kts 21°
2026-04-27 04:05 14.16936 -24.21166 37036 ft 460 kts 21°
2026-04-27 04:05 14.22689 -24.18381 37034 ft 460 kts 21°
2026-04-27 04:06 14.28482 -24.15572 37032 ft 460 kts 21°
2026-04-27 04:06 14.34273 -24.12757 37042 ft 460 kts 21°
2026-04-27 04:07 14.42965 -24.08536 37034 ft 461 kts 21°
2026-04-27 04:07 14.48768 -24.05724 37040 ft 461 kts 21°
2026-04-27 04:08 14.54571 -24.02905 37039 ft 461 kts 21°
2026-04-27 04:08 14.60374 -24.00071 37040 ft 461 kts 21°
2026-04-27 04:09 14.66178 -23.97240 37043 ft 461 kts 21°
2026-04-27 04:09 14.71988 -23.94413 37049 ft 462 kts 21°
2026-04-27 04:10 14.77799 -23.91585 37042 ft 462 kts 21°
2026-04-27 04:10 14.83611 -23.88753 37044 ft 462 kts 21°
2026-04-27 04:11 14.89429 -23.85919 37046 ft 462 kts 21°
2026-04-27 04:11 14.95247 -23.83080 37046 ft 462 kts 21°
2026-04-27 04:12 15.01021 -23.80255 37048 ft 462 kts 21°
2026-04-27 04:12 15.06837 -23.77413 37057 ft 462 kts 20°
2026-04-27 04:13 15.12654 -23.74566 37058 ft 462 kts 20°
2026-04-27 04:13 15.18463 -23.71719 37062 ft 462 kts 20°
2026-04-27 04:14 15.24277 -23.68875 37060 ft 462 kts 20°
2026-04-27 04:14 15.30087 -23.66031 37055 ft 462 kts 20°
2026-04-27 04:15 15.35901 -23.63186 37053 ft 462 kts 20°
2026-04-27 04:15 15.41712 -23.60332 37069 ft 462 kts 20°
2026-04-27 04:16 15.47515 -23.57474 37062 ft 462 kts 20°
2026-04-27 04:16 15.52343 -23.55110 37061 ft 461 kts 20°
2026-04-27 04:17 15.58149 -23.52266 37053 ft 461 kts 20°
2026-04-27 04:17 15.64903 -23.48940 37069 ft 461 kts 20°
2026-04-27 04:18 15.69761 -23.46545 37060 ft 461 kts 20°
2026-04-27 04:18 15.75523 -23.43702 37058 ft 461 kts 19°
2026-04-27 04:19 15.81325 -23.40844 37064 ft 461 kts 19°
2026-04-27 04:19 15.87124 -23.37988 37061 ft 461 kts 19°
2026-04-27 04:20 15.92936 -23.35123 37059 ft 461 kts 19°
2026-04-27 04:20 15.98731 -23.32260 37058 ft 461 kts 19°
2026-04-27 04:21 16.04530 -23.29406 37060 ft 461 kts 19°
2026-04-27 04:21 16.10332 -23.26544 37065 ft 461 kts 19°
2026-04-27 04:22 16.16129 -23.23673 37061 ft 462 kts 19°
2026-04-27 04:22 16.21924 -23.20797 37057 ft 462 kts 19°
2026-04-27 04:23 16.27724 -23.17923 37055 ft 462 kts 19°
2026-04-27 04:23 16.33486 -23.15074 37055 ft 462 kts 19°
2026-04-27 04:24 16.39289 -23.12203 37055 ft 462 kts 19°
2026-04-27 04:24 16.45089 -23.09324 37070 ft 462 kts 18°
2026-04-27 04:25 16.50884 -23.06441 37067 ft 461 kts 18°
2026-04-27 04:25 16.56681 -23.03561 37067 ft 461 kts 18°
2026-04-27 04:26 16.62474 -23.00681 37068 ft 461 kts 18°
2026-04-27 04:26 16.68274 -22.97797 37068 ft 461 kts 18°
2026-04-27 04:27 16.74065 -22.94895 37067 ft 462 kts 19°
2026-04-27 04:27 16.79733 -22.91653 37067 ft 466 kts 23°
2026-04-27 04:28 16.85294 -22.88150 37063 ft 467 kts 24°
2026-04-27 04:28 16.90861 -22.84658 37059 ft 466 kts 23°
2026-04-27 04:29 16.96428 -22.81265 37059 ft 466 kts 23°
2026-04-27 04:29 17.02039 -22.77888 37069 ft 466 kts 22°
2026-04-27 04:30 17.07652 -22.74494 37069 ft 466 kts 22°
2026-04-27 04:30 17.13258 -22.71087 37071 ft 466 kts 22°
2026-04-27 04:31 17.18859 -22.67665 37069 ft 466 kts 22°
2026-04-27 04:31 17.24457 -22.64252 37067 ft 465 kts 22°
2026-04-27 04:32 17.30053 -22.60843 37066 ft 465 kts 22°
2026-04-27 04:32 17.35645 -22.57431 37065 ft 465 kts 22°
2026-04-27 04:33 17.41234 -22.54014 37066 ft 465 kts 22°
2026-04-27 04:33 17.46825 -22.50596 37085 ft 465 kts 21°
2026-04-27 04:34 17.52412 -22.47182 37081 ft 465 kts 21°
2026-04-27 04:34 17.57997 -22.43772 37081 ft 464 kts 21°
2026-04-27 04:35 17.63575 -22.40359 37076 ft 464 kts 21°
2026-04-27 04:35 17.69149 -22.36938 37072 ft 464 kts 21°
2026-04-27 04:36 17.74730 -22.33512 37069 ft 464 kts 21°
2026-04-27 04:36 17.80265 -22.30110 37090 ft 464 kts 21°
2026-04-27 04:37 17.85838 -22.26694 37082 ft 464 kts 21°
2026-04-27 04:37 17.91406 -22.23273 37079 ft 463 kts 21°
2026-04-27 04:38 17.96973 -22.19847 37078 ft 463 kts 21°
2026-04-27 04:38 18.02530 -22.16428 37074 ft 463 kts 21°
2026-04-27 04:39 18.08089 -22.13004 37066 ft 463 kts 21°
2026-04-27 04:39 18.13644 -22.09581 37089 ft 463 kts 21°
2026-04-27 04:40 18.19194 -22.06157 37084 ft 462 kts 21°
2026-04-27 04:40 18.24738 -22.02738 37079 ft 462 kts 21°
2026-04-27 04:41 18.30273 -21.99316 37076 ft 461 kts 21°
2026-04-27 04:41 18.35810 -21.95891 37075 ft 461 kts 21°
2026-04-27 04:42 18.41344 -21.92471 37072 ft 461 kts 21°
2026-04-27 04:42 18.46873 -21.89051 37070 ft 461 kts 21°
2026-04-27 04:43 18.52401 -21.85617 37098 ft 460 kts 21°
2026-04-27 04:43 18.57911 -21.82200 37084 ft 459 kts 21°
2026-04-27 04:44 18.63420 -21.78789 37072 ft 459 kts 21°
2026-04-27 04:44 18.68939 -21.75369 37058 ft 461 kts 21°
2026-04-27 04:45 18.74425 -21.71947 37054 ft 461 kts 21°
2026-04-27 04:45 18.79960 -21.68505 37053 ft 462 kts 21°
2026-04-27 04:46 18.85532 -21.65031 37084 ft 462 kts 21°
2026-04-27 04:46 18.91022 -21.61609 37084 ft 461 kts 21°
2026-04-27 04:47 18.96539 -21.58168 37078 ft 460 kts 21°
2026-04-27 04:47 19.02051 -21.54734 37075 ft 460 kts 21°
2026-04-27 04:48 19.07569 -21.51303 37074 ft 460 kts 21°
2026-04-27 04:48 19.13079 -21.47866 37071 ft 460 kts 21°
2026-04-27 04:49 19.18587 -21.44420 37102 ft 460 kts 21°
2026-04-27 04:49 19.24082 -21.40968 37093 ft 459 kts 21°
2026-04-27 04:50 19.29567 -21.37522 37083 ft 458 kts 21°
2026-04-27 04:50 19.35050 -21.34087 37085 ft 458 kts 21°
2026-04-27 04:51 19.40530 -21.30647 37081 ft 458 kts 21°
2026-04-27 04:51 19.46011 -21.27212 37073 ft 458 kts 21°
2026-04-27 04:52 19.51490 -21.23781 37098 ft 457 kts 20°
2026-04-27 04:52 19.56929 -21.20361 37090 ft 457 kts 20°
2026-04-27 04:53 19.62391 -21.16916 37085 ft 457 kts 20°
2026-04-27 04:53 19.67857 -21.13471 37096 ft 457 kts 20°
2026-04-27 04:54 19.73321 -21.10031 37090 ft 457 kts 20°
2026-04-27 04:54 19.78786 -21.06584 37084 ft 457 kts 20°
2026-04-27 04:55 19.84246 -21.03136 37082 ft 457 kts 20°
2026-04-27 04:55 19.89711 -20.99678 37106 ft 456 kts 20°
2026-04-27 04:56 19.95123 -20.96256 37090 ft 455 kts 20°
2026-04-27 04:56 20.00571 -20.92813 37088 ft 455 kts 20°
2026-04-27 04:57 20.06013 -20.89365 37081 ft 455 kts 20°
2026-04-27 04:57 20.11446 -20.85907 37077 ft 455 kts 20°
2026-04-27 04:58 20.16882 -20.82459 37073 ft 454 kts 20°
2026-04-27 04:58 20.22317 -20.79021 37082 ft 455 kts 20°
2026-04-27 04:59 20.27753 -20.75570 37075 ft 455 kts 20°
2026-04-27 04:59 20.33186 -20.72109 37069 ft 455 kts 20°
2026-04-27 05:00 20.38628 -20.68648 37069 ft 456 kts 20°
2026-04-27 05:00 20.44038 -20.65198 37071 ft 456 kts 20°
2026-04-27 05:01 20.49474 -20.61715 37070 ft 456 kts 20°
2026-04-27 05:01 20.54914 -20.58233 37096 ft 455 kts 20°
2026-04-27 05:02 20.60345 -20.54760 37086 ft 455 kts 20°
2026-04-27 05:03 20.68486 -20.49539 37076 ft 455 kts 20°
2026-04-27 05:03 20.73905 -20.46057 37082 ft 455 kts 20°
2026-04-27 05:04 20.79302 -20.42592 37075 ft 455 kts 20°
2026-04-27 05:04 20.84732 -20.39116 37069 ft 455 kts 20°
2026-04-27 05:05 20.90161 -20.35630 37099 ft 455 kts 20°
2026-04-27 05:05 20.95589 -20.32133 37088 ft 456 kts 20°
2026-04-27 05:06 21.01022 -20.28630 37071 ft 456 kts 20°
2026-04-27 05:06 21.06456 -20.25125 37077 ft 456 kts 20°
2026-04-27 05:07 21.11887 -20.21613 37079 ft 456 kts 20°
2026-04-27 05:07 21.16402 -20.18701 37068 ft 456 kts 20°
2026-04-27 05:08 21.22714 -20.14626 37093 ft 456 kts 20°
2026-04-27 05:08 21.28139 -20.11113 37097 ft 456 kts 20°
2026-04-27 05:09 21.33570 -20.07599 37077 ft 456 kts 20°
2026-04-27 05:09 21.38124 -20.04653 37067 ft 456 kts 20°
2026-04-27 05:10 21.43563 -20.01129 37061 ft 457 kts 20°
2026-04-27 05:10 21.48969 -19.97614 37061 ft 457 kts 20°
2026-04-27 05:11 21.54407 -19.94072 37058 ft 457 kts 20°
2026-04-27 05:11 21.59858 -19.90530 37087 ft 458 kts 20°
2026-04-27 05:12 21.65307 -19.86996 37080 ft 458 kts 20°
2026-04-27 05:12 21.70759 -19.83445 37070 ft 458 kts 21°
2026-04-27 05:13 21.76217 -19.79882 37073 ft 459 kts 21°
2026-04-27 05:13 21.81674 -19.76315 37073 ft 459 kts 21°
2026-04-27 05:14 21.87133 -19.72753 37067 ft 459 kts 21°
2026-04-27 05:14 21.92592 -19.69189 37088 ft 459 kts 21°
2026-04-27 05:15 21.98056 -19.65611 37081 ft 459 kts 21°
2026-04-27 05:15 22.03514 -19.62025 37076 ft 460 kts 21°
2026-04-27 05:16 22.08976 -19.58446 37071 ft 460 kts 21°
2026-04-27 05:16 22.14441 -19.54859 37070 ft 460 kts 21°
2026-04-27 05:17 22.19909 -19.51276 37072 ft 460 kts 21°
2026-04-27 05:17 22.25336 -19.47716 37088 ft 459 kts 21°
2026-04-27 05:18 22.30794 -19.44119 37084 ft 460 kts 22°
2026-04-27 05:18 22.36248 -19.40519 37077 ft 460 kts 22°
2026-04-27 05:19 22.42193 -19.36606 37066 ft 460 kts 22°
2026-04-27 05:19 22.47657 -19.33000 37065 ft 460 kts 22°
2026-04-27 05:20 22.53121 -19.29389 37069 ft 460 kts 22°
2026-04-27 05:20 22.58586 -19.25775 37106 ft 460 kts 22°
2026-04-27 05:21 22.64048 -19.22158 37088 ft 460 kts 22°
2026-04-27 05:21 22.69479 -19.18559 37084 ft 460 kts 22°
2026-04-27 05:22 22.74931 -19.14947 37082 ft 460 kts 22°
2026-04-27 05:22 22.80387 -19.11327 37084 ft 460 kts 22°
2026-04-27 05:23 22.85844 -19.07702 37083 ft 460 kts 22°
2026-04-27 05:23 22.91301 -19.04070 37107 ft 460 kts 22°
2026-04-27 05:24 22.96762 -19.00450 37093 ft 460 kts 22°
2026-04-27 05:24 23.02217 -18.96820 37089 ft 460 kts 22°
2026-04-27 05:25 23.07672 -18.93174 37079 ft 460 kts 22°
2026-04-27 05:25 23.13086 -18.89547 37079 ft 460 kts 22°
2026-04-27 05:26 23.18536 -18.85905 37076 ft 460 kts 22°
2026-04-27 05:26 23.23986 -18.82266 37102 ft 460 kts 22°
2026-04-27 05:27 23.29432 -18.78618 37098 ft 459 kts 22°
2026-04-27 05:27 23.34873 -18.74973 37090 ft 459 kts 22°
2026-04-27 05:28 23.40305 -18.71327 37083 ft 459 kts 22°
2026-04-27 05:28 23.45742 -18.67681 37078 ft 459 kts 22°
2026-04-27 05:29 23.51174 -18.64023 37076 ft 459 kts 22°
2026-04-27 05:29 23.56606 -18.60368 37075 ft 459 kts 22°
2026-04-27 05:30 23.62042 -18.56721 37077 ft 459 kts 22°
2026-04-27 05:30 23.67475 -18.53068 37077 ft 459 kts 23°
2026-04-27 05:31 23.71976 -18.50014 37077 ft 459 kts 23°
2026-04-27 05:31 23.77401 -18.46340 37076 ft 459 kts 23°
2026-04-27 05:32 23.83716 -18.42086 37086 ft 459 kts 23°
2026-04-27 05:32 23.89148 -18.38409 37109 ft 459 kts 23°
2026-04-27 05:33 23.94566 -18.34736 37093 ft 458 kts 23°
2026-04-27 05:33 23.99068 -18.31678 37086 ft 458 kts 22°
2026-04-27 05:34 24.04487 -18.28010 37080 ft 458 kts 22°
2026-04-27 05:34 24.09901 -18.24333 37076 ft 458 kts 23°
2026-04-27 05:35 24.15310 -18.20643 37076 ft 458 kts 23°
2026-04-27 05:35 24.20713 -18.16957 37074 ft 458 kts 23°
2026-04-27 05:36 24.26125 -18.13282 37093 ft 457 kts 23°
2026-04-27 05:36 24.31527 -18.09598 37086 ft 457 kts 23°
2026-04-27 05:37 24.36891 -18.05929 37090 ft 457 kts 23°
2026-04-27 05:37 24.42286 -18.02240 37085 ft 457 kts 23°
2026-04-27 05:38 24.47678 -17.98559 37075 ft 457 kts 23°
2026-04-27 05:38 24.53069 -17.94860 37076 ft 457 kts 23°
2026-04-27 05:39 24.58467 -17.91163 37100 ft 456 kts 23°
2026-04-27 05:39 24.63853 -17.87467 37085 ft 456 kts 23°
2026-04-27 05:40 24.69233 -17.83762 37079 ft 456 kts 23°
2026-04-27 05:40 24.74611 -17.80057 37077 ft 456 kts 23°
2026-04-27 05:41 24.79991 -17.76358 37074 ft 456 kts 23°
2026-04-27 05:41 24.85365 -17.72660 37084 ft 456 kts 23°
2026-04-27 05:42 24.90754 -17.68951 37099 ft 456 kts 23°
2026-04-27 05:42 24.96104 -17.65263 37081 ft 456 kts 23°
2026-04-27 05:43 25.01477 -17.61542 37075 ft 456 kts 23°
2026-04-27 05:43 25.06853 -17.57810 37070 ft 456 kts 23°
2026-04-27 05:44 25.12231 -17.54083 37064 ft 456 kts 23°
2026-04-27 05:44 25.17608 -17.50351 37061 ft 456 kts 23°
2026-04-27 05:45 25.22977 -17.46617 37092 ft 456 kts 23°
2026-04-27 05:45 25.28344 -17.42876 37084 ft 456 kts 23°
2026-04-27 05:46 25.33707 -17.39142 37101 ft 455 kts 23°
2026-04-27 05:46 25.39073 -17.35397 37073 ft 455 kts 23°
2026-04-27 05:47 25.44436 -17.31658 37068 ft 456 kts 23°
2026-04-27 05:47 25.49800 -17.27919 37063 ft 456 kts 23°
2026-04-27 05:48 25.55160 -17.24168 37095 ft 456 kts 24°
2026-04-27 05:48 25.60511 -17.20404 37084 ft 455 kts 24°
2026-04-27 05:49 25.65864 -17.16657 37073 ft 455 kts 23°
2026-04-27 05:49 25.71213 -17.12908 37067 ft 455 kts 24°
2026-04-27 05:50 25.76553 -17.09155 37059 ft 455 kts 23°
2026-04-27 05:50 25.81865 -17.05418 37057 ft 455 kts 23°
2026-04-27 05:51 25.87212 -17.01658 37083 ft 455 kts 24°
2026-04-27 05:51 25.92552 -16.97892 37066 ft 454 kts 24°
2026-04-27 05:52 25.97889 -16.94124 37061 ft 454 kts 24°
2026-04-27 05:52 26.03226 -16.90355 37055 ft 454 kts 24°
2026-04-27 05:53 26.08564 -16.86585 37050 ft 454 kts 23°
2026-04-27 05:53 26.13896 -16.82818 37051 ft 454 kts 24°
2026-04-27 05:54 26.19268 -16.79126 37087 ft 447 kts 17°
2026-04-27 05:54 26.22097 -16.77805 37082 ft 436 kts
2026-04-27 05:54 26.24983 -16.76776 37077 ft 435 kts
2026-04-27 05:55 26.30741 -16.74725 37071 ft 435 kts
2026-04-27 05:55 26.36465 -16.72676 37064 ft 434 kts
2026-04-27 05:56 26.42222 -16.70616 37058 ft 434 kts
2026-04-27 05:56 26.47975 -16.68563 37109 ft 435 kts
2026-04-27 05:57 26.53739 -16.66492 37089 ft 435 kts
2026-04-27 05:57 26.59503 -16.64421 37075 ft 435 kts
2026-04-27 05:58 26.65262 -16.62344 37061 ft 435 kts
2026-04-27 05:58 26.71020 -16.60269 37057 ft 435 kts
2026-04-27 05:59 26.76780 -16.58200 37054 ft 435 kts
2026-04-27 05:59 26.82535 -16.56127 37052 ft 435 kts
2026-04-27 06:00 26.91172 -16.53010 37051 ft 435 kts
2026-04-27 06:00 26.96931 -16.50928 37049 ft 435 kts
2026-04-27 06:01 27.02685 -16.48839 37052 ft 435 kts
2026-04-27 06:01 27.08444 -16.46747 37076 ft 435 kts
2026-04-27 06:02 27.14163 -16.44671 37076 ft 435 kts
2026-04-27 06:02 27.19918 -16.42583 37069 ft 434 kts
2026-04-27 06:03 27.25668 -16.40500 37064 ft 434 kts
2026-04-27 06:03 27.31422 -16.38408 37057 ft 434 kts
2026-04-27 06:04 27.37177 -16.36310 36526 ft 438 kts
2026-04-27 06:04 27.40102 -16.35251 35674 ft 445 kts
2026-04-27 06:04 27.43075 -16.34175 34842 ft 451 kts 11°
2026-04-27 06:05 27.46080 -16.33080 33982 ft 456 kts 11°
2026-04-27 06:05 27.49118 -16.31970 33026 ft 460 kts 11°
2026-04-27 06:05 27.52179 -16.30848 32071 ft 463 kts 12°
2026-04-27 06:05 27.55252 -16.29722 31109 ft 467 kts 13°
2026-04-27 06:06 27.58350 -16.28587 30128 ft 470 kts 13°
2026-04-27 06:06 27.61470 -16.27444 28930 ft 473 kts 14°
2026-04-27 06:06 27.64616 -16.26290 27704 ft 477 kts 14°
2026-04-27 06:06 27.67780 -16.25126 26436 ft 480 kts 15°
2026-04-27 06:07 27.70968 -16.23955 25295 ft 482 kts 15°
2026-04-27 06:07 27.74150 -16.22787 24259 ft 481 kts 16°
2026-04-27 06:07 27.77325 -16.21620 23261 ft 477 kts 16°
2026-04-27 06:07 27.80464 -16.20466 22249 ft 472 kts 15°
2026-04-27 06:08 27.83565 -16.19325 21296 ft 465 kts 16°
2026-04-27 06:08 27.86615 -16.18186 20394 ft 458 kts 17°
2026-04-27 06:08 27.89599 -16.16970 19533 ft 452 kts 19°
2026-04-27 06:08 27.92513 -16.15690 18690 ft 446 kts 20°
2026-04-27 06:09 27.95373 -16.14385 17799 ft 440 kts 21°
2026-04-27 06:09 27.98195 -16.13087 16888 ft 434 kts 20°
2026-04-27 06:09 28.00964 -16.11824 16238 ft 423 kts 21°
2026-04-27 06:09 28.03665 -16.10609 15588 ft 414 kts 20°
2026-04-27 06:10 28.06323 -16.09431 14948 ft 407 kts 20°
2026-04-27 06:10 28.08949 -16.08278 14306 ft 401 kts 19°
2026-04-27 06:10 28.11535 -16.07146 13621 ft 396 kts 20°
2026-04-27 06:10 28.14088 -16.06024 12934 ft 390 kts 20°
2026-04-27 06:11 28.16598 -16.04919 12270 ft 383 kts 20°
2026-04-27 06:11 28.19058 -16.03831 11590 ft 377 kts 20°
2026-04-27 06:11 28.21381 -16.02537 11177 ft 366 kts 31°
2026-04-27 06:11 28.23342 -16.00828 11041 ft 348 kts 41°
2026-04-27 06:12 28.24915 -15.98853 11059 ft 327 kts 50°
2026-04-27 06:12 28.26308 -15.96902 11061 ft 309 kts 49°
2026-04-27 06:12 28.27634 -15.95057 11058 ft 296 kts 49°
2026-04-27 06:12 28.28917 -15.93280 11030 ft 294 kts 49°
2026-04-27 06:13 28.30214 -15.91481 10643 ft 295 kts 49°
2026-04-27 06:13 28.31500 -15.89689 10356 ft 290 kts 49°
2026-04-27 06:13 28.32723 -15.87896 10162 ft 286 kts 56°
2026-04-27 06:13 28.33251 -15.85738 10030 ft 291 kts 88°
2026-04-27 06:14 28.32679 -15.83550 9889 ft 295 kts 116°
2026-04-27 06:14 28.31708 -15.81495 9759 ft 295 kts 113°
2026-04-27 06:14 28.30776 -15.79427 9625 ft 296 kts 121°
2026-04-27 06:14 28.29620 -15.77493 9490 ft 296 kts 123°
2026-04-27 06:15 28.28434 -15.75580 9366 ft 296 kts 123°
2026-04-27 06:15 28.27246 -15.73677 9228 ft 295 kts 123°
2026-04-27 06:15 28.26058 -15.71783 9102 ft 294 kts 123°
2026-04-27 06:15 28.24871 -15.69896 8981 ft 293 kts 123°
2026-04-27 06:16 28.23688 -15.68015 8844 ft 293 kts 123°
2026-04-27 06:16 28.22502 -15.66139 8719 ft 292 kts 123°
2026-04-27 06:16 28.21322 -15.64269 8593 ft 291 kts 123°
2026-04-27 06:16 28.20142 -15.62399 8460 ft 292 kts 123°
2026-04-27 06:17 28.19347 -15.61159 8381 ft 294 kts 124°
2026-04-27 06:17 28.17696 -15.58703 8206 ft 294 kts 134°
2026-04-27 06:17 28.16611 -15.57786 8122 ft 294 kts 151°
2026-04-27 06:17 28.14017 -15.57238 7961 ft 282 kts 189°
2026-04-27 06:18 28.12791 -15.57651 7871 ft 274 kts 209°
2026-04-27 06:18 28.11376 -15.58987 7723 ft 261 kts 239°
2026-04-27 06:18 28.10754 -15.60838 7611 ft 248 kts 270°
2026-04-27 06:18 28.11040 -15.62705 7486 ft 240 kts 297°
2026-04-27 06:19 28.11859 -15.64350 7374 ft 239 kts 308°
2026-04-27 06:19 28.12793 -15.65866 7246 ft 231 kts 308°
2026-04-27 06:19 28.13702 -15.67326 7127 ft 224 kts 308°
2026-04-27 06:19 28.14598 -15.68761 7006 ft 222 kts 308°
2026-04-27 06:20 28.15489 -15.70189 6882 ft 222 kts 308°
2026-04-27 06:20 28.16381 -15.71617 6751 ft 222 kts 308°
2026-04-27 06:20 28.17272 -15.73041 6508 ft 221 kts 308°
2026-04-27 06:20 28.18157 -15.74458 6257 ft 219 kts 308°
2026-04-27 06:21 28.19031 -15.75857 6000 ft 216 kts 308°
2026-04-27 06:21 28.19891 -15.77236 5745 ft 213 kts 308°
2026-04-27 06:21 28.20739 -15.78597 5501 ft 210 kts 308°
2026-04-27 06:21 28.21576 -15.79941 5251 ft 207 kts 308°
2026-04-27 06:22 28.22401 -15.81267 5040 ft 202 kts 308°
2026-04-27 06:22 28.23199 -15.82551 4974 ft 197 kts 308°
2026-04-27 06:22 28.23988 -15.83820 4979 ft 197 kts 308°
2026-04-27 06:22 28.24780 -15.85092 4980 ft 197 kts 308°
2026-04-27 06:23 28.25572 -15.86365 4977 ft 197 kts 308°
2026-04-27 06:23 28.26362 -15.87636 4982 ft 197 kts 308°
2026-04-27 06:23 28.27149 -15.88908 4981 ft 197 kts 308°
2026-04-27 06:23 28.27938 -15.90182 4980 ft 197 kts 308°
2026-04-27 06:24 28.28729 -15.91454 4986 ft 197 kts 308°
2026-04-27 06:24 28.29519 -15.92725 4989 ft 197 kts 308°
2026-04-27 06:24 28.30298 -15.93980 4990 ft 197 kts 309°
2026-04-27 06:24 28.31082 -15.95241 4988 ft 195 kts 308°
2026-04-27 06:25 28.31865 -15.96500 4992 ft 194 kts 310°
2026-04-27 06:25 28.32637 -15.97745 4991 ft 193 kts 309°
2026-04-27 06:25 28.33413 -15.98993 4993 ft 195 kts 308°
2026-04-27 06:25 28.34196 -16.00255 4997 ft 195 kts 309°
2026-04-27 06:26 28.34974 -16.01509 4988 ft 194 kts 309°
2026-04-27 06:26 28.35749 -16.02760 4992 ft 193 kts 309°
2026-04-27 06:26 28.36520 -16.04009 4993 ft 193 kts 309°
2026-04-27 06:26 28.37291 -16.05257 4994 ft 193 kts 309°
2026-04-27 06:27 28.38061 -16.06506 4997 ft 194 kts 309°
2026-04-27 06:27 28.38836 -16.07761 4999 ft 194 kts 309°
2026-04-27 06:27 28.39611 -16.09019 5000 ft 194 kts 308°
2026-04-27 06:27 28.40269 -16.10367 4949 ft 197 kts 299°
2026-04-27 06:28 28.40799 -16.11780 4808 ft 189 kts 296°
2026-04-27 06:28 28.41264 -16.13139 4612 ft 180 kts 296°
2026-04-27 06:28 28.41699 -16.14436 4432 ft 171 kts 296°
2026-04-27 06:28 28.42108 -16.15660 4339 ft 159 kts 295°
2026-04-27 06:29 28.42483 -16.16785 4298 ft 148 kts 296°
2026-04-27 06:29 28.42850 -16.17878 4312 ft 149 kts 296°
2026-04-27 06:29 28.43218 -16.18979 4313 ft 148 kts 296°
2026-04-27 06:29 28.43577 -16.20059 4268 ft 141 kts 296°
2026-04-27 06:30 28.43917 -16.21079 4134 ft 136 kts 296°
2026-04-27 06:30 28.44249 -16.22075 3981 ft 134 kts 297°
2026-04-27 06:30 28.44577 -16.23058 3820 ft 132 kts 298°
2026-04-27 06:30 28.44899 -16.24027 3647 ft 130 kts 297°
2026-04-27 06:31 28.45216 -16.24977 3484 ft 130 kts 297°
2026-04-27 06:31 28.45535 -16.25937 3309 ft 130 kts 297°
2026-04-27 06:31 28.45854 -16.26895 3139 ft 129 kts 297°
2026-04-27 06:31 28.46171 -16.27847 2964 ft 128 kts 297°
2026-04-27 06:32 28.46485 -16.28792 2779 ft 128 kts 296°
2026-04-27 06:32 28.46802 -16.29747 2604 ft 129 kts 294°
2026-04-27 06:32 28.47115 -16.30695 2434 ft 127 kts 293°
2026-04-27 06:32 28.47417 -16.31628 2246 ft 126 kts 292°
2026-04-27 06:33 28.47727 -16.32537 2101 ft 123 kts 291°
2026-04-27 06:33 28.48013 -16.33387 2045 ft 102 kts 292°
2026-04-27 06:33 28.48194 -16.33966 2057 ft 53 kts 289°
2026-04-27 06:33 28.48316 -16.34159 2060 ft 21 kts 324°
2026-04-27 06:34 28.48424 -16.34283 2062 ft 23 kts 292°
2026-04-27 06:34 28.48457 -16.34411 2064 ft 14 kts 289°
2026-04-27 06:34 28.48501 -16.34518 2066 ft 14 kts 292°
2026-04-27 06:34 28.48558 -16.34577 2067 ft 12 kts 351°
2026-04-27 06:35 28.48616 -16.34561 2067 ft 9 kts 20°
2026-04-27 06:35 28.48650 -16.34547 2067 ft 0 kts 20°